Flag for Turkey Weather past 2 weeks in Istanbul, Turkey

Now
79 °F

Clear.


Feels Like: 81 °F
Forecast: 76 / 86 °F
Wind: 14 mph from Northeast

Location: Istanbul Ataturk Airport

Current Time: Aug 23, 2014 at 11:33:51 PM

Latest Report: Aug 23, 2014 at 10:50 PM


Visibility: 10 mi

Pressure: 29.95 "Hg

Humidity: 74%

Dew point: 70 °F

Location of IstanbulLocation

Historic Weather in Istanbul — Graph

°F

Istanbul temperature yesterday

Maximum temperature yesterday: 90 °F (at 2:50 PM)
Minimum temperature yesterday: 73 °F (at 6:20 AM)
Average temperature yesterday: 81 °F

Past Weeks' High & Low Weather Summary

 TemperatureHumidityPressure
High93 °F (Aug 16, 4:20 PM)94% (Aug 10, 6:20 AM)30.04 "Hg (Aug 10, 6:20 AM)
Low70 °F (Aug 17, 9:50 PM)26% (Aug 12, 2:20 PM)29.68 "Hg (Aug 17, 2:20 PM)
Average80 °F65%29.90 "Hg
* Reported Aug 8 10:20 PM — Aug 23 10:20 PM, Istanbul, Weather by CustomWeather, © 2014

Note: Actual official high and low records may vary slightly from our data, if they occured in-between our weather recording intervals... More about our weather records

Advertising

Istanbul weather history for previous 24 hours

 ConditionsComfort  
Time TempWeatherWind HumidityBarometerVisibility
10:20 PM
Aug 23
79 °FClear.14 mph74%29.95 "Hg10 mi
9:50 PM79 °FPassing clouds.14 mph74%29.95 "HgN/A
9:20 PM79 °FClear.14 mph70%29.95 "Hg10 mi
8:50 PM79 °FPassing clouds.16 mph70%29.95 "HgN/A
8:20 PM81 °FPassing clouds.14 mph66%29.95 "HgN/A
7:50 PM81 °FSunny.15 mph66%29.95 "Hg10 mi
7:20 PM82 °FSunny.17 mph62%29.95 "Hg10 mi
6:50 PM84 °FPassing clouds.14 mph58%29.95 "HgN/A
6:20 PM84 °FPassing clouds.15 mph55%29.95 "HgN/A
5:50 PM84 °FPassing clouds.14 mph55%29.95 "HgN/A
5:20 PM86 °FSunny.14 mph46%29.95 "Hg10 mi
4:50 PM88 °FSunny.14 mph46%29.95 "Hg10 mi
4:20 PM88 °FPassing clouds.14 mph43%29.95 "HgN/A
3:50 PM88 °FPassing clouds.13 mph49%29.95 "HgN/A
3:20 PM88 °FPassing clouds.14 mph49%29.95 "HgN/A
2:50 PM88 °FPassing clouds.13 mph49%29.95 "HgN/A
2:20 PM90 °FPassing clouds.12 mph43%29.98 "HgN/A
1:50 PM90 °FPassing clouds.9 mph41%29.98 "HgN/A
1:20 PM88 °FPassing clouds.13 mph46%29.98 "HgN/A
12:50 PM88 °FSunny.10 mph49%29.98 "Hg10 mi
12:20 PM86 °FPassing clouds.12 mph52%29.98 "HgN/A
11:50 AM86 °FPassing clouds.12 mph52%29.98 "HgN/A
11:20 AM84 °FPassing clouds.12 mph58%29.98 "HgN/A
10:50 AM84 °FPassing clouds.12 mph55%30.01 "HgN/A
10:20 AM84 °FPassing clouds.10 mph58%30.01 "HgN/A
9:50 AM84 °FSunny.10 mph58%29.98 "Hg10 mi
9:20 AM82 °FSunny.8 mph66%29.98 "Hg10 mi
8:50 AM79 °FPassing clouds.12 mph74%29.98 "HgN/A
8:20 AM79 °FPassing clouds.12 mph74%29.98 "HgN/A
7:50 AM77 °FPassing clouds.8 mph79%29.98 "HgN/A
7:20 AM77 °FPassing clouds.9 mph79%29.98 "HgN/A
6:50 AM75 °FPassing clouds.7 mph78%29.98 "HgN/A
6:20 AM77 °FPassing clouds.7 mph69%29.98 "HgN/A
5:50 AM75 °FClear.7 mph69%29.98 "Hg10 mi
5:20 AM77 °FClear.6 mph65%29.98 "Hg10 mi
4:50 AM77 °FClear.7 mph61%29.98 "Hg10 mi
4:20 AM77 °FClear.7 mph65%29.98 "Hg10 mi
3:50 AM77 °FPassing clouds.8 mph69%29.98 "HgN/A
3:20 AM77 °FPassing clouds.8 mph74%29.98 "HgN/A
2:50 AM77 °FPassing clouds.7 mph74%29.98 "HgN/A
2:20 AM79 °FClear.6 mph70%29.98 "Hg10 mi
1:50 AM81 °FPassing clouds.10 mph66%29.98 "HgN/A
1:20 AM79 °FPassing clouds.9 mph65%29.98 "HgN/A
12:50 AM77 °FClear.9 mph69%30.01 "Hg10 mi
12:20 AM79 °FPassing clouds.9 mph65%29.98 "HgN/A
11:50 PM
Aug 22
79 °FPassing clouds.9 mph61%29.98 "HgN/A
11:20 PM79 °FPassing clouds.7 mph65%29.98 "HgN/A
Weather by CustomWeather, © 2014

See weather overviewHow to use our weather pages